Location: Aragoneses
(41.0275°N, 4.3847°W)
Time: 04:25:28
(UTC+00:00)

CZ-2D R/B - Pass Details

Date: 11 December 2025
Orbit: 524 x 598 km, 98.0° (Epoch: 13 January)

Event Time Altitude Azimuth Distance (km) Brightness Sun altitude
Rises 19:04:19 0° 181° (S) 2,826 7.1 -24.6°
Reaches altitude 10° 19:06:34 10° 188° (S) 1,926 6.3 -25.1°
Maximum altitude 19:10:34 44° 261° (W) 830 4.6 -25.8°
Drops below altitude 10° 19:14:34 10° 334° (NNW) 1,918 6.3 -26.6°
Sets 19:16:48 0° 341° (NNW) 2,813 7.1 -27.0°
